Theta_e
289 288 288 288 288 288 287 286 286 286 285 285 285 285 284 283 283 282 281 281 281 280 281 280 280 280 279 278 278 278 278 277 275 276 278 278 277 277 279 279 278 278 278
288 288 287 287 287 286 286 286 285 284 284 284 283 283 282 281 281 280 280 280 280 280 280 280 279 281 278 278 277 277 277 277 276 274 276 276 276 277 278 276 278 278 277
287 286 286 285 285 285 284 284 284 283 283 282 282 281 281 280 280 280 280 279 279 279 279 279 278 278 278 277 276 275 276 277 276 275 274 276 276 277 277 277 276 276 277
286 286 285 285 285 284 284 283 283 282 281 280 280 280 280 279 279 279 279 279 278 279 279 279 278 278 277 276 276 276 277 276 276 275 274 275 276 277 276 274 273 274 274
285 285 284 284 284 284 283 282 281 281 280 280 279 279 279 279 279 279 279 278 278 278 278 279 279 278 281 280 278 276 276 275 275 274 274 274 275 274 273 273 272 272 274
285 284 284 284 283 282 281 281 280 280 279 278 278 278 277 279 282 283 281 278 278 278 277 277 277 278 278 280 280 280 280 276 275 274 274 273 273 273 273 272 272 272 268
284 284 283 282 281 281 281 280 279 279 278 278 277 277 277 277 282 283 283 279 278 277 277 277 277 278 277 277 278 279 279 279 279 276 274 273 272 273 273 272 271 269 268
283 283 282 281 281 280 280 279 279 278 278 277 277 277 276 277 282 283 283 279 277 276 276 276 276 276 276 277 277 276 276 276 276 277 276 274 274 275 273 271 270 269 269
283 283 282 281 280 279 279 278 278 278 278 278 278 277 277 277 282 283 282 278 277 276 277 276 276 276 278 280 277 275 275 276 278 278 278 277 276 275 273 270 266 265 263
282 282 281 280 280 279 279 278 278 278 279 278 279 278 278 277 280 282 281 278 276 276 276 277 278 277 279 280 277 276 274 273 273 271 269 269 269 269 271 268 267 263 263
282 281 281 280 279 279 278 276 275 276 277 275 276 277 276 276 276 281 282 279 276 275 275 275 276 278 279 279 280 274 274 275 267 265 264 264 265 266 266 267 267 265 262
281 280 278 277 278 278 275 274 273 273 272 272 271 273 274 276 277 279 281 281 280 276 275 275 274 278 279 279 277 277 276 271 264 262 262 262 263 263 265 264 264 264 265
277 276 275 275 276 276 273 273 271 270 271 271 273 273 274 275 275 280 281 280 280 277 275 275 278 279 278 275 274 274 268 264 261 258 261 262 263 263 263 261 262 262 262
277 275 274 274 273 271 274 273 272 271 271 272 272 273 273 271 272 272 273 272 275 275 275 272 274 276 274 273 266 267 265 264 262 261 261 262 262 260 259 260 258 258 256
276 274 274 273 272 272 273 274 275 275 275 272 273 273 268 268 271 275 272 268 268 271 270 264 261 260 260 259 258 258 259 260 258 259 258 258 258 258 257 258 257 255 253
274 273 272 272 271 272 272 272 279 281 280 282 282 278 274 278 279 279 279 279 280 279 266 259 258 259 259 258 256 257 258 258 257 256 256 256 256 255 255 255 255 253 253
274 272 271 272 271 269 268 271 272 273 282 283 284 283 282 281 280 280 280 281 279 277 262 257 258 258 258 258 257 257 258 258 255 252 253 254 254 254 252 253 253 253 253
267 269 271 271 271 271 271 271 270 269 268 267 275 280 281 281 281 281 279 276 265 264 255 254 254 253 254 254 255 253 253 253 250 251 252 252 250 250 251 252 253 252 252
269 269 271 270 269 270 269 267 268 266 266 263 261 269 267 276 278 278 277 262 257 254 252 251 251 251 252 251 251 249 248 250 249 246 247 248 249 245 250 251 252 252 252
269 270 269 269 267 266 265 266 264 264 262 262 262 264 258 260 259 257 255 254 252 252 251 251 250 248 248 248 247 246 248 247 247 246 249 248 248 246 250 251 252 251 251
270 268 269 265 266 267 268 267 266 264 266 265 266 263 268 262 260 257 255 252 253 251 250 249 248 247 246 245 245 246 246 247 245 248 248 247 248 247 251 251 251 251 252
268 267 265 268 265 265 266 267 267 267 266 265 262 260 275 265 258 256 253 252 251 250 249 249 248 247 246 246 247 246 247 247 247 245 246 248 249 250 250 251 251 251 251
269 269 267 265 266 266 267 267 267 267 264 263 262 262 257 256 258 256 254 250 248 247 246 246 247 247 244 246 245 246 246 249 249 246 248 249 249 250 250 250 251 251 251
271 271 271 270 268 268 268 268 267 265 264 263 261 261 259 256 255 255 253 249 247 246 246 246 247 249 247 247 246 246 246 248 249 249 247 249 249 250 251 251 251 252 252
271 270 270 270 269 269 268 267 266 263 263 262 261 259 256 255 254 255 255 253 249 248 248 249 246 247 248 248 248 247 247 252 251 252 251 250 251 251 252 253 253 253 253
270 270 270 270 269 269 268 267 265 263 262 261 260 259 258 258 257 256 255 255 254 253 251 250 248 249 249 249 248 250 254 258 257 257 254 252 252 253 255 255 255 254 254
Wind_Speed
8 9 9 8 8 8 6 6 6 6 6 5 6 5 5 4 3 2 1 2 0 1 2 2 4 3 3 3 3 3 4 3 8 8 7 5 7 10 8 8 6 8 8
8 8 8 9 8 7 7 6 6 6 5 5 5 5 4 3 2 2 2 1 1 3 4 4 5 4 5 4 2 4 3 3 5 11 9 9 11 10 10 6 8 7 10
8 8 8 8 7 7 7 6 5 6 5 5 5 4 4 3 3 3 3 3 3 4 5 5 5 5 4 2 2 4 3 5 4 7 10 8 8 8 7 8 8 10 9
8 7 7 7 7 6 6 6 6 6 5 5 4 4 4 4 3 4 5 4 4 4 5 5 5 5 4 4 4 3 5 5 6 7 9 9 9 8 6 9 10 9 11
9 7 7 6 6 6 6 6 5 5 5 5 4 4 4 4 4 5 5 4 4 5 5 5 5 4 7 7 4 4 5 5 6 7 9 10 8 9 10 9 12 12 11
8 7 6 6 6 6 6 6 5 5 5 5 4 5 6 3 8 10 6 3 4 5 5 5 4 5 6 11 12 14 12 7 9 8 9 8 11 9 8 11 12 9 13
7 7 7 6 6 6 5 5 6 6 4 5 6 5 6 5 10 10 11 4 4 4 5 5 6 4 5 4 9 14 12 13 15 11 10 9 10 11 13 11 12 13 13
7 7 7 7 6 6 6 6 5 4 5 5 6 6 5 5 11 12 10 5 4 5 6 6 6 6 5 6 7 7 6 7 7 7 8 10 10 12 13 12 14 14 11
8 9 8 7 7 6 6 6 5 5 5 5 4 6 6 6 11 11 9 4 5 7 6 6 5 5 9 13 7 6 9 6 9 17 18 20 23 23 18 10 8 10 12
10 9 7 7 7 6 6 7 4 4 5 4 5 6 7 5 9 10 10 3 6 5 4 4 7 6 13 13 8 6 6 7 7 7 8 11 11 10 16 8 8 9 9
7 7 7 6 6 7 6 3 3 4 4 3 5 5 4 6 6 13 15 6 4 4 4 4 4 11 13 15 16 2 8 12 7 6 6 6 6 6 6 6 8 9 10
7 6 6 6 5 5 6 3 3 5 4 5 3 5 4 6 10 13 14 12 10 5 5 3 4 13 14 13 12 17 17 11 3 4 6 6 7 6 7 8 10 9 8
6 6 6 5 5 5 5 5 3 3 4 4 4 6 6 4 4 11 12 11 11 5 1 7 14 12 13 9 12 14 7 2 2 2 6 7 7 8 10 9 8 9 9
7 7 5 6 5 4 4 4 4 4 4 5 6 6 5 2 3 3 3 3 6 5 7 3 6 9 9 8 4 5 2 2 4 6 6 7 7 7 7 7 8 8 9
6 5 6 5 5 4 5 5 6 6 8 5 6 5 3 4 5 8 7 3 3 7 3 2 2 2 2 3 2 2 2 2 2 3 4 7 7 7 7 7 7 8 7
6 4 4 4 4 4 4 4 13 16 14 18 18 10 4 9 7 9 11 13 12 11 3 2 1 1 2 2 2 3 2 2 2 2 4 5 7 7 8 7 7 6 8
6 4 4 4 4 3 3 4 6 4 14 16 17 16 15 11 11 12 13 10 9 7 2 2 2 1 3 3 3 2 4 4 2 2 3 5 6 7 7 8 8 7 9
4 6 5 4 4 4 5 5 4 4 3 3 5 9 10 11 12 8 5 4 2 3 2 2 3 2 2 2 2 2 3 3 2 3 4 5 5 4 7 8 8 8 9
5 4 5 5 5 5 4 3 4 4 4 3 1 2 4 4 8 9 9 3 3 2 2 2 3 3 3 2 2 3 3 4 3 2 3 4 5 2 8 8 8 12 11
5 7 6 4 2 2 3 3 3 3 3 3 3 4 1 3 1 1 1 2 2 3 3 3 3 2 3 3 3 3 3 4 4 3 4 3 4 3 7 9 8 9 10
5 4 5 3 4 4 4 5 4 3 4 4 5 4 10 4 4 3 3 3 4 3 4 3 3 3 3 3 2 3 3 4 3 5 4 5 4 6 7 7 9 9 10
4 4 4 5 3 3 4 4 4 4 5 4 3 3 14 5 4 4 3 4 4 3 3 3 3 4 3 3 3 3 4 5 5 5 5 6 6 7 7 8 9 9 10
4 5 4 3 4 4 4 4 4 5 4 4 4 3 2 2 3 4 4 3 3 3 3 3 3 3 3 3 3 4 5 7 6 4 6 8 7 8 7 9 10 10 10
5 6 5 4 4 4 5 5 5 5 4 4 4 4 4 3 4 5 3 3 3 3 2 3 3 5 4 4 4 4 5 7 6 8 8 8 9 9 9 11 11 13 12
6 5 6 6 6 6 5 5 5 4 5 5 4 4 3 3 4 4 3 3 3 3 4 3 3 5 7 9 9 9 9 14 11 10 7 9 13 15 13 12 13 13 14
5 6 5 4 5 5 5 5 5 5 6 5 4 4 5 5 4 4 4 4 3 3 4 3 4 7 8 8 10 12 13 14 12 14 11 9 10 12 12 14 18 12 14
Wind_Direction
134 133 132 138 121 117 127 118 117 117 123 127 119 122 121 111 96 106 150 178 130 308 329 309 304 291 275 278 287 275 267 255 282 298 300 309 308 309 301 301 293 306 311
132 133 137 121 124 125 120 119 125 120 121 128 125 121 122 140 166 179 236 286 285 288 279 276 275 288 288 279 291 299 287 293 290 307 310 311 306 307 300 296 307 307 309
135 146 143 133 130 127 129 130 131 133 135 125 128 147 168 188 206 234 242 256 258 257 271 269 276 279 275 274 286 285 288 301 293 297 300 300 294 296 299 303 306 307 302
146 154 143 140 139 140 131 143 145 147 142 151 166 178 194 210 219 235 237 254 279 285 289 275 274 275 277 273 285 277 286 296 287 287 293 296 296 307 307 313 307 303 304
156 150 150 140 134 136 148 155 150 146 163 172 181 202 218 219 225 235 231 256 282 288 290 286 276 281 295 280 287 278 273 266 281 297 301 301 314 319 315 314 302 304 299
154 147 145 146 142 159 164 163 154 169 185 184 203 218 230 234 239 236 240 254 264 273 285 288 283 275 280 287 292 294 292 296 309 302 303 308 313 315 310 306 300 312 313
146 152 154 159 171 173 168 168 180 191 187 208 223 228 237 235 247 252 247 233 244 261 275 290 295 263 265 264 280 293 294 294 301 305 306 307 311 310 304 312 318 306 304
155 159 169 171 176 177 181 188 193 189 206 215 226 230 237 244 248 249 247 226 253 264 265 262 260 273 270 277 272 272 276 280 290 296 304 302 296 315 321 317 310 306 300
170 185 179 176 184 182 188 196 201 202 215 217 216 225 227 230 245 255 261 214 249 260 266 262 269 276 282 296 290 288 293 298 301 305 315 325 323 321 317 315 311 310 309
186 190 179 182 184 185 195 207 202 197 219 216 226 226 233 234 248 262 258 225 248 266 270 273 274 281 294 302 295 292 304 303 311 350 331 328 326 312 321 313 314 312 315
174 174 179 181 182 195 199 182 183 206 218 210 230 239 238 245 249 258 255 249 238 249 252 258 269 294 299 299 306 353 308 324 5 343 320 310 317 318 318 318 327 312 304
175 173 174 180 194 190 192 183 188 183 200 232 252 273 245 245 244 255 260 258 253 231 236 239 251 284 292 315 328 322 321 356 344 318 315 318 321 321 323 320 311 302 296
150 172 188 191 194 184 180 193 206 175 213 228 235 254 258 228 230 255 248 247 255 266 198 257 272 303 316 331 319 322 2 341 308 313 318 317 320 319 318 312 306 307 296
171 189 191 194 199 200 201 187 192 198 214 228 231 249 258 236 235 211 210 230 260 264 272 300 294 306 325 323 359 339 332 320 326 321 315 316 318 317 315 315 317 318 310
184 181 196 196 198 210 217 205 217 218 205 209 228 226 210 252 242 229 200 198 216 240 226 57 29 6 337 326 321 310 306 310 318 305 314 317 315 312 313 320 314 313 302
185 194 183 188 204 212 220 262 244 245 241 247 254 229 214 225 228 243 223 231 244 263 96 131 270 264 286 291 303 295 275 308 301 322 314 313 311 312 314 316 307 302 302
197 173 179 195 203 196 205 224 258 261 259 252 251 252 253 246 240 248 247 245 249 279 133 199 207 233 258 266 283 294 314 322 317 284 298 305 308 309 313 308 305 301 299
185 193 193 195 200 207 215 219 219 236 241 249 271 252 259 267 257 247 231 255 30 58 137 175 217 237 257 259 277 279 295 303 289 291 305 295 286 289 304 299 298 297 298
197 209 204 206 210 212 207 212 218 217 234 238 327 9 4 274 262 238 242 138 180 215 199 210 207 221 240 254 260 274 256 275 262 279 273 285 282 245 289 286 286 289 288
212 213 200 202 199 214 209 216 225 225 220 215 214 221 191 70 132 274 70 130 152 207 209 214 233 231 237 237 261 260 288 297 290 277 286 271 276 248 279 284 284 288 291
199 194 195 174 201 206 207 217 214 203 227 222 229 198 200 179 195 196 202 202 191 207 213 209 221 228 228 243 260 278 270 278 265 271 273 273 274 281 275 271 279 281 279
184 183 182 203 187 203 222 211 207 213 218 220 229 237 227 172 176 184 202 207 207 207 194 181 215 223 224 220 236 253 266 272 276 257 261 271 272 274 277 278 278 276 277
183 188 193 200 203 208 222 209 213 212 210 212 196 201 194 174 176 191 200 204 193 197 204 185 216 265 241 238 216 220 240 261 257 227 264 281 279 275 273 277 279 280 278
187 197 203 203 196 212 221 217 213 211 207 205 197 195 192 194 194 203 198 191 186 215 207 205 215 244 269 270 250 236 234 253 252 257 237 262 275 283 271 268 270 271 272
185 189 198 207 205 212 214 214 210 202 206 201 203 183 187 188 191 199 194 193 188 191 228 232 237 252 264 272 271 267 258 267 255 255 252 247 257 264 267 268 270 275 273
188 198 206 197 217 212 214 210 204 195 206 203 190 189 188 191 185 181 185 197 200 211 237 235 241 260 266 264 264 269 271 273 269 252 236 240 253 264 262 263 269 265 271